CAPE
0 0 0 0 0 0 0 0 0 0 0 0 0 0 0 0 0 0 0 0 0 0 0 0 0 0 0 0 0 0 0 0 0 0 0 0 0 0 0 0 0 0 0 0 0
0 0 0 0 0 0 0 0 0 0 0 0 0 0 0 0 0 0 0 0 0 0 0 0 0 0 0 0 0 0 0 0 0 0 0 0 0 0 0 0 0 0 0 0 0
0 0 0 0 0 0 0 0 0 0 0 0 0 0 0 0 0 0 0 0 0 0 0 0 0 0 0 0 0 0 0 0 0 0 0 0 0 0 0 0 0 0 0 0 0
0 0 0 0 0 0 0 0 0 0 0 0 0 0 0 0 0 0 0 0 0 0 0 0 0 0 0 0 0 0 0 0 0 0 0 0 0 0 0 0 0 0 0 0 0
0 0 0 0 0 0 0 0 0 0 0 0 0 0 0 0 0 0 0 0 0 0 0 0 0 0 0 0 0 0 0 0 0 0 0 0 0 0 0 0 0 0 0 0 0
0 0 0 0 0 0 0 0 0 0 0 0 0 0 0 0 0 0 0 0 0 0 0 0 0 0 0 0 0 0 0 0 0 0 0 0 0 0 0 0 0 0 0 0 0
0 0 0 0 0 0 0 0 0 0 0 0 0 0 0 0 0 0 0 0 0 0 0 0 0 0 0 0 0 0 0 0 0 0 0 0 0 0 0 0 0 0 0 0 0
0 0 0 0 0 0 0 0 0 0 0 0 0 0 0 0 0 0 0 0 0 0 0 0 0 0 0 0 0 0 0 0 0 0 0 0 0 0 0 0 0 0 0 0 0
0 0 0 0 0 0 0 0 0 0 0 0 0 0 0 0 0 0 0 0 0 0 0 0 0 0 0 0 0 0 0 0 0 0 0 0 0 0 0 0 0 0 0 0 0
0 0 0 0 0 0 0 0 0 0 0 0 0 0 0 0 0 0 0 0 0 0 0 0 0 0 0 0 0 0 0 0 0 0 0 0 0 0 0 0 0 0 0 0 0
0 0 0 0 0 0 0 0 0 0 0 0 0 0 0 0 0 0 0 0 0 0 0 0 0 0 0 0 0 0 0 0 0 0 0 0 0 0 0 0 0 0 0 0 0
0 0 0 0 0 0 0 0 0 0 0 0 0 0 0 0 0 0 0 0 0 0 0 0 0 0 0 0 0 0 0 0 0 0 0 0 0 0 0 0 0 0 0 0 0
0 0 0 0 0 0 0 0 0 0 0 0 0 0 0 0 0 0 0 0 0 0 0 0 0 0 0 0 0 0 0 0 0 0 0 0 0 0 0 0 0 0 0 0 0
0 1 1 0 0 0 0 0 0 0 0 0 0 0 0 0 0 0 0 0 0 0 0 0 0 0 0 0 0 0 0 0 0 0 0 0 0 0 0 0 0 0 0 0 0
0 2 2 0 0 0 0 0 0 0 0 0 0 0 0 0 0 0 0 0 0 0 0 0 0 0 0 0 0 0 0 0 0 0 0 0 0 0 0 0 0 0 0 0 0
0 4 2 0 0 0 0 0 0 0 0 0 0 0 0 0 0 0 0 0 0 0 0 0 0 0 0 0 0 0 0 0 0 0 0 0 0 0 0 0 0 0 0 0 0
0 1 0 0 1 0 0 0 0 0 0 0 0 0 0 0 0 0 0 0 0 0 0 0 0 0 0 0 0 0 0 0 0 0 0 0 0 0 0 0 0 0 0 0 0
0 0 0 0 0 0 0 0 0 0 0 0 0 0 0 0 0 0 0 0 0 0 0 0 0 0 0 0 0 0 0 0 0 0 0 0 0 0 0 0 0 0 0 0 0
0 1 1 0 0 0 0 1 0 0 0 0 0 0 0 0 0 0 0 0 0 0 0 0 0 0 0 0 0 0 0 0 0 0 0 0 0 0 0 0 0 0 0 0 0
0 0 1 1 0 1 1 1 0 0 0 0 0 0 0 0 0 0 0 0 0 0 0 0 0 0 0 0 0 0 0 0 0 0 0 0 0 0 0 0 0 0 0 0 0
0 1 0 1 1 0 1 0 0 0 0 0 0 0 0 0 0 0 0 0 0 0 0 0 0 0 0 0 0 0 0 0 0 0 0 0 0 0 0 0 0 0 0 0 0
0 1 1 1 0 1 0 0 0 0 0 0 0 0 0 0 0 0 0 0 0 0 0 0 0 0 0 0 0 0 0 0 0 0 0 0 0 0 0 0 0 0 0 0 0
1 0 0 2 1 0 0 0 0 0 0 0 0 0 0 0 0 0 0 0 0 0 0 0 0 0 0 0 0 0 0 0 0 0 0 0 0 0 0 0 0 0 0 0 0
0 0 1 1 1 0 1 1 0 0 0 0 0 0 0 0 0 0 0 0 0 0 0 0 0 0 0 0 0 0 0 0 0 0 0 0 0 0 0 0 0 0 0 0 0
0 0 0 0 2 0 0 1 1 0 0 0 0 0 0 0 0 0 0 0 0 0 0 0 2 0 0 0 0 0 0 0 0 0 0 0 0 0 0 0 0 0 0 0 0
0 0 0 1 0 1 1 0 0 1 0 0 0 0 0 0 0 0 0 0 0 0 0 0 0 0 0 0 0 0 0 0 0 0 0 0 0 0 0 0 0 0 0 0 0
0 0 0 0 0 2 1 0 0 0 0 0 0 0 0 0 0 0 0 0 0 0 0 0 0 0 0 0 0 0 0 0 0 0 0 0 0 0 0 0 0 0 0 0 0
CIN
0 0 0 0 0 0 0 0 0 0 0 0 0 0 0 0 0 0 0 0 0 0 0 0 0 0 0 0 0 0 0 0 0 0 0 0 0 0 0 0 0 0 0 0 0
0 0 0 0 0 0 0 0 0 0 0 0 0 0 0 0 0 0 0 0 0 0 0 0 0 0 0 0 0 0 0 0 0 0 0 0 0 0 0 0 0 0 0 0 0
0 0 0 0 0 0 0 0 0 0 0 0 0 0 0 0 0 0 0 0 0 0 0 0 0 0 0 0 0 0 0 0 0 0 0 0 0 0 0 0 0 0 0 0 0
0 0 0 0 0 0 0 0 0 0 0 0 0 0 0 0 0 0 0 0 0 0 0 0 0 0 0 0 0 0 0 0 0 0 0 0 0 0 0 0 0 0 0 0 0
0 0 0 0 0 0 0 0 0 0 0 0 0 0 0 0 0 0 0 0 0 0 0 0 0 0 0 0 0 0 0 0 0 0 0 0 0 0 0 0 0 0 0 0 0
0 0 0 0 0 0 0 0 0 0 0 0 0 0 0 0 0 0 0 0 0 0 0 0 0 0 0 0 0 0 0 0 0 0 0 0 0 0 0 0 0 0 0 0 0
0 0 0 0 0 0 0 0 0 0 0 0 0 0 0 0 0 0 0 0 0 0 0 0 0 0 0 0 0 0 0 0 0 0 0 0 0 0 0 0 0 0 0 0 0
0 0 0 0 0 0 0 0 0 0 0 0 0 0 0 0 0 0 0 0 0 0 0 0 0 0 0 0 0 0 0 0 0 0 0 0 0 0 0 0 0 0 0 0 0
0 0 0 0 0 0 0 0 0 0 0 0 0 0 0 0 0 0 0 0 0 0 0 0 0 0 0 0 0 0 0 0 0 0 0 0 0 0 0 0 0 0 0 0 0
0 0 0 0 0 0 0 0 0 0 0 0 0 0 0 0 0 0 0 0 0 0 0 0 0 0 0 0 0 0 0 0 0 0 0 0 0 0 0 0 0 0 0 0 0
0 0 0 0 0 0 0 0 0 0 0 0 0 0 0 0 0 0 0 0 0 0 0 0 0 0 0 0 0 0 0 0 0 0 0 0 0 0 0 0 0 0 0 0 0
0 0 0 0 0 0 0 0 0 0 0 0 0 0 0 0 0 0 0 0 0 0 0 0 0 0 0 0 0 0 0 0 0 0 0 0 0 0 0 0 0 0 0 0 0
0 0 0 -3 0 0 0 0 0 0 0 0 0 0 0 0 0 0 0 0 0 0 0 0 0 0 0 0 0 0 0 0 0 0 0 0 0 0 0 0 0 0 0 0 0
0 -8 -9 -8 0 0 0 0 0 0 0 0 0 0 0 0 0 0 0 0 0 0 0 0 0 0 0 0 0 0 0 0 0 0 0 0 0 0 0 0 0 0 0 0 0
0 -10 -8 -6 0 0 0 0 0 0 0 0 0 0 0 0 0 0 0 0 0 0 0 0 0 0 0 0 0 0 0 0 0 0 0 0 0 0 0 0 0 0 0 0 0
0 -6 -6 -7 0 0 0 0 0 0 0 0 0 0 0 0 0 0 0 0 0 0 0 0 0 0 0 0 0 0 0 0 0 0 0 0 0 0 0 0 0 0 0 0 0
-2 -5 -1 0 -2 0 0 0 0 0 0 0 0 0 0 0 0 0 0 0 0 0 0 0 0 0 0 0 0 0 0 0 0 0 0 0 0 0 0 0 0 0 0 0 0
0 0 0 0 0 0 0 0 0 0 0 0 0 0 0 0 0 0 0 0 0 0 0 0 0 0 0 0 0 0 0 0 0 0 0 0 0 0 0 0 0 0 0 0 0
0 0 0 0 0 0 0 0 0 0 0 0 0 0 0 0 0 0 0 0 0 0 0 0 0 0 0 0 0 0 0 0 0 0 0 0 0 0 0 0 0 0 0 0 0
0 0 0 0 0 0 0 0 0 0 0 0 0 0 0 0 0 0 0 0 0 0 0 0 0 0 0 0 0 0 0 0 0 0 0 0 0 0 0 0 0 0 0 0 0
0 0 0 0 0 0 0 0 0 0 0 0 0 0 0 0 0 0 0 0 0 0 0 0 0 0 0 0 0 0 0 0 0 0 0 0 0 0 0 0 0 0 0 0 0
0 0 0 0 0 0 0 0 0 0 0 0 0 0 0 0 0 0 0 0 0 0 0 0 0 0 0 0 0 0 0 0 0 0 0 0 0 0 0 0 0 0 0 0 0
-9 0 0 0 0 0 0 0 0 0 0 0 0 0 0 0 0 0 0 0 0 0 0 0 0 0 0 0 0 0 0 0 0 0 0 0 0 0 0 0 0 0 0 0 0
0 0 0 0 0 0 0 0 0 0 0 0 0 0 0 0 0 0 0 0 0 0 0 0 0 0 0 0 0 0 0 0 0 0 0 0 0 0 0 0 0 0 0 0 0
0 0 0 0 0 0 0 0 0 0 0 0 0 0 0 0 0 0 0 0 0 0 0 -2 -9 0 0 0 0 0 0 0 0 0 0 0 0 0 0 0 0 0 0 0 0
0 0 0 0 0 0 0 0 0 0 0 0 0 0 0 0 0 0 0 0 0 0 0 0 0 0 0 0 0 0 0 0 0 0 0 0 0 0 0 0 0 0 0 0 0
0 0 0 0 0 0 0 0 0 0 0 0 0 0 0 0 0 0 0 0 0 0 0 0 0 0 0 0 0 0 0 0 0 0 0 0 0 0 0 0 0 0 0 0 0
Wind_Speed
16 17 17 18 19 19 20 21 22 23 23 23 24 24 24 25 25 22 23 17 15 11 13 13 15 17 17 17 17 15 17 16 15 17 16 19 20 20 20 16 19 16 16 17 19
18 18 19 19 20 21 21 22 23 24 24 25 25 25 26 26 25 24 19 16 15 10 12 13 15 16 17 17 17 15 16 14 11 15 18 18 18 22 21 25 18 19 21 21 19
19 20 20 20 21 22 22 23 24 25 26 26 26 26 26 25 24 19 17 15 12 10 14 13 17 16 18 16 15 14 14 13 14 14 18 19 21 20 24 24 14 33 27 24 18
21 21 21 21 22 23 24 24 25 27 27 27 27 26 25 20 22 17 17 15 13 10 16 16 17 16 17 15 13 15 12 11 15 17 20 17 19 21 17 2 18 20 26 24 25
22 23 23 23 23 24 25 26 27 28 28 27 26 24 20 21 21 18 16 14 13 13 17 17 15 15 16 15 17 15 17 18 17 20 18 18 15 18 9 6 21 23 25 25 23
23 23 23 24 24 25 26 27 28 29 28 26 24 21 20 23 17 15 15 14 13 13 16 14 15 15 18 19 19 19 21 23 24 22 20 15 19 18 19 20 26 25 29 25 25
24 24 24 24 25 26 27 28 29 29 27 25 20 19 21 22 17 15 15 15 14 15 16 16 15 16 18 20 20 21 26 30 27 19 18 19 22 17 17 25 27 30 27 25 26
24 23 23 23 25 26 28 29 29 27 24 22 17 18 23 19 17 16 16 17 16 16 16 16 16 17 18 19 23 24 24 24 19 20 21 17 22 21 26 29 32 29 24 24 26
25 23 22 23 25 26 28 30 28 21 21 18 20 21 25 18 18 16 16 16 15 16 17 16 16 17 18 21 24 21 21 20 24 20 20 19 28 29 34 31 33 26 23 22 23
23 23 23 23 24 27 29 28 21 21 19 20 20 23 20 19 16 16 15 12 16 15 17 17 18 18 19 17 23 23 22 20 20 22 24 27 29 32 31 29 27 23 20 20 21
23 22 22 24 24 24 25 22 24 24 21 21 21 21 19 17 16 18 15 15 16 18 18 17 18 18 16 14 19 22 24 27 26 26 32 30 32 29 25 28 25 19 19 19 21
23 23 23 22 24 24 21 22 23 22 31 25 26 27 22 19 23 19 14 18 19 21 17 21 23 17 20 21 21 24 26 27 29 24 28 29 30 31 31 25 18 16 16 17 18
23 22 23 23 24 23 20 21 18 21 30 31 26 26 25 20 26 23 15 19 21 20 19 24 25 19 19 21 22 23 22 24 26 25 22 29 31 26 26 21 17 17 16 16 17
24 23 22 20 23 19 21 15 16 19 36 35 29 25 21 19 27 19 16 18 19 22 20 23 21 21 19 21 21 24 18 18 21 25 32 27 39 29 23 18 18 16 16 16 17
22 21 22 18 22 20 18 12 14 20 44 24 20 16 15 15 14 15 12 14 17 16 15 19 18 15 15 16 10 18 15 19 23 29 33 29 34 32 20 23 17 14 15 15 15
23 21 20 23 25 20 10 10 15 27 39 24 17 15 14 14 14 13 12 12 12 15 17 18 16 15 15 16 13 16 21 24 26 28 37 32 28 31 23 21 13 13 12 12 13
24 22 21 20 25 12 8 12 25 35 23 23 19 15 15 16 15 13 13 13 16 19 20 20 19 18 16 17 17 19 24 32 35 32 34 21 29 29 27 21 14 11 11 11 12
23 22 23 24 18 12 13 20 36 29 26 19 16 15 20 14 17 15 16 19 17 18 21 24 28 16 16 18 21 21 22 28 38 37 34 24 32 29 24 19 11 11 11 11 13
26 27 24 21 16 15 18 30 32 25 22 19 18 22 23 20 19 18 20 23 19 16 24 26 29 19 17 16 15 21 26 23 31 32 39 34 30 25 20 18 15 14 13 14 15
24 24 26 19 16 17 24 33 30 24 20 20 26 23 24 22 21 20 21 20 20 17 18 23 33 21 20 18 21 22 18 30 29 39 41 36 36 33 23 19 16 17 18 17 17
25 25 21 19 21 25 31 30 26 22 19 23 27 27 27 24 22 23 24 22 19 18 17 19 25 28 22 25 26 27 30 27 28 31 40 43 40 27 20 17 18 19 21 19 19
21 28 20 15 23 25 31 28 22 25 21 23 22 22 25 23 24 25 27 26 16 17 23 20 25 32 31 25 24 25 27 25 34 37 35 40 47 25 23 19 17 23 26 22 23
21 25 22 21 28 31 29 29 26 26 25 24 24 23 22 27 30 31 31 26 20 21 24 21 30 39 37 34 28 30 29 29 30 33 43 43 43 24 21 19 21 30 30 28 29
23 28 27 29 28 33 31 30 30 24 25 26 25 25 26 30 28 32 30 25 24 25 24 22 32 37 43 37 28 32 29 28 29 38 38 41 39 33 28 30 34 37 37 35 32
25 30 30 32 36 34 33 32 33 32 30 29 31 31 29 32 32 34 30 27 27 24 24 27 38 36 37 34 33 35 37 32 35 35 42 46 42 41 38 39 42 40 37 34 31
31 31 29 34 32 34 33 36 35 32 30 33 34 31 32 35 35 35 31 31 31 26 26 26 38 34 42 36 38 45 44 39 38 40 41 41 47 40 42 38 37 37 36 35 32
24 25 27 30 33 35 37 35 37 32 31 32 33 32 34 34 29 26 24 25 27 29 30 30 32 37 49 37 38 49 43 41 40 37 38 44 38 34 38 38 36 35 34 33 32
Wind_Direction
308 308 310 313 313 311 311 314 314 313 311 307 304 302 300 298 296 319 313 336 350 25 9 8 360 358 0 360 4 13 355 353 359 359 1 356 347 347 355 6 356 1 360 356 348
304 306 308 311 312 313 315 316 316 314 312 308 303 303 305 307 313 311 330 344 348 24 4 1 354 355 350 353 357 359 354 1 17 5 354 351 349 342 345 339 348 345 343 343 342
300 303 306 309 311 312 314 316 315 311 309 308 303 303 307 315 318 326 337 347 6 23 358 359 348 348 343 348 351 355 353 360 353 357 351 345 341 346 339 341 358 291 334 337 343
296 300 303 307 309 311 312 313 313 310 308 307 306 306 308 328 320 335 334 343 351 356 342 338 336 339 339 343 352 345 350 353 346 345 341 346 344 342 344 302 354 352 337 338 332
294 296 299 303 306 308 310 310 311 309 309 310 312 313 323 319 317 330 338 342 343 337 332 334 335 338 338 342 338 335 332 332 333 332 335 336 333 337 339 348 348 348 343 338 342
292 295 298 300 303 305 306 309 310 310 311 313 315 318 319 312 330 336 337 336 336 334 330 335 337 336 332 329 329 332 328 324 324 325 327 331 337 343 346 347 337 339 333 340 338
289 292 295 299 301 303 305 306 308 310 313 314 320 320 313 312 329 335 336 332 331 330 327 328 328 328 333 329 330 328 322 318 323 334 334 335 329 336 344 336 331 328 334 336 336
288 291 294 297 299 301 303 305 306 311 316 320 325 321 310 323 327 325 325 323 326 327 327 328 330 326 325 330 325 322 324 326 337 336 334 337 325 333 334 331 325 327 335 338 337
285 288 292 295 298 301 302 303 306 315 318 326 319 314 307 322 317 322 324 322 328 328 328 330 327 324 327 320 320 324 324 326 327 336 335 330 321 324 321 325 320 332 338 340 341
284 286 289 293 297 300 302 307 314 313 314 315 312 308 308 311 319 323 325 333 327 331 326 323 321 317 319 319 316 320 320 323 323 330 327 322 317 321 324 323 328 335 342 344 345
280 284 287 291 296 303 307 309 304 303 302 298 305 303 312 316 320 313 320 320 323 318 313 318 312 307 307 304 317 317 315 313 318 322 318 319 320 326 330 326 328 338 338 340 343
276 280 284 289 295 300 306 300 303 309 296 296 293 294 301 304 300 304 312 304 305 303 309 309 299 300 309 309 306 309 312 313 317 324 323 321 320 323 327 333 336 341 347 349 352
272 277 280 285 293 297 296 301 315 315 299 295 296 294 294 294 294 295 293 299 299 296 293 294 305 313 304 305 307 309 310 316 318 326 328 324 320 326 334 343 350 351 356 356 357
269 271 275 284 289 293 295 305 317 318 295 293 292 295 297 299 295 306 295 298 299 295 298 301 303 300 306 305 310 309 317 321 321 323 316 329 315 323 326 330 338 344 348 352 354
264 266 268 269 288 287 299 308 317 313 285 304 300 311 308 301 317 317 318 307 298 304 308 310 317 318 309 313 318 318 328 324 321 316 315 316 313 320 330 319 326 342 350 356 2
259 259 262 269 277 289 297 308 309 292 281 295 308 303 303 307 312 321 319 325 322 309 309 307 322 317 318 324 318 329 321 320 320 317 308 312 308 316 320 326 324 331 343 351 355
254 252 251 262 268 265 276 289 283 277 294 289 291 294 294 296 298 302 301 299 303 302 300 305 299 310 314 312 319 314 316 312 310 310 308 317 315 308 319 322 316 320 334 342 346
244 242 251 261 262 225 259 268 271 278 271 295 293 289 288 291 295 293 296 294 295 305 306 299 301 300 306 302 309 304 302 305 306 307 311 315 308 311 324 333 340 334 334 336 335
248 256 257 247 236 238 238 256 269 269 274 275 286 283 284 286 296 290 289 293 295 284 296 299 301 315 313 314 312 312 301 310 303 306 303 303 307 312 318 319 320 323 327 325 324
247 249 254 240 223 232 242 257 269 274 272 270 273 280 279 279 280 284 287 303 297 296 297 303 299 307 309 311 308 304 311 303 303 300 299 302 300 299 303 304 309 311 314 317 317
244 248 253 237 242 241 245 261 270 274 274 273 272 276 279 279 276 281 294 300 299 300 297 299 298 303 305 297 294 299 296 300 299 294 295 298 300 310 300 302 305 307 310 309 308
247 247 244 240 245 255 251 258 269 267 274 277 281 275 276 277 282 281 285 292 295 294 290 295 301 294 294 304 303 299 295 291 290 294 293 293 293 306 307 301 303 310 309 304 306
248 254 256 251 247 251 263 260 264 264 258 268 271 275 278 276 282 282 286 295 288 283 287 289 295 295 298 297 297 292 294 293 294 295 287 289 296 313 310 303 304 311 310 304 304
251 255 259 254 257 253 254 258 256 262 263 267 274 275 279 278 279 287 288 292 290 286 288 286 286 287 288 296 302 293 291 295 293 291 292 288 296 298 300 300 304 307 307 303 301
254 259 258 254 252 256 254 258 254 260 261 265 268 268 273 277 278 278 286 287 290 288 286 285 284 287 289 292 292 291 290 292 289 292 291 293 292 293 298 301 304 307 308 306 302
260 260 262 266 259 252 250 256 257 260 262 263 264 271 271 272 275 282 277 281 283 284 283 290 287 291 290 293 292 289 289 291 290 290 290 292 292 297 300 303 304 305 306 306 304
270 274 264 269 267 250 254 258 258 263 267 268 269 273 273 274 282 286 289 286 286 282 280 285 286 290 289 295 295 290 291 289 290 291 293 292 295 301 301 302 303 304 305 306 307